User: anonymous   Login
Location: Bottenau
(48.5138°N, 8.0462°E)
Time: 02:18:17
(UTC+00:00)
Language:

ATLAS 3B R/B - Orbit

View from above orbital plane
View from above orbital plane
View from above satellite
View from above satellite

Ground track
Ground track

The orbit data is extracted from the following two-line orbital elements,

1 28538U 05004B   21173.91297358 0.00000020  00000-0  33402-4 0    04
2 28538  63.8280 199.6347 0122816  12.4931 347.5069 13.43145063    08
Epoch (UTC): 22 June 2021 21:54:40
Eccentricity: 0.0122816
inclination: 63.8280°
perigee height: 1006 km
apogee height: 1189 km
right ascension of ascending node: 199.6347°
argument of perigee: 12.4931°
revolutions per day: 13.43145063
mean anomaly at epoch: 347.5069°
orbit number at epoch: 0

The dashed part of the orbit path shows where the satellite is in the earth's shadow,  

DLR